Terminal Aerodrome Forecast
Issued by NWS Charleston, WV

Current Version | Previous Version | Graphics & Text | Print | Product List | Glossary On
Versions: 1 2 3 4 5 6 7 8 9 10 11 12 13 14 15 16 17 18 19 20 21
000
FTUS41 KRLX 210905 AAA
TAFPKB
TAF AMD
KPKB 210905Z 2109/2206 22006KT P6SM SCT008 OVC015
      TEMPO 2109/2112 BKN005
     FM211500 26008KT P6SM BKN020
     FM211700 27009KT P6SM BKN035
     FM211800 27009KT P6SM SCT060
     FM220200 28005KT P6SM FEW130=

USA.gov is the U.S. government's official web portal to all federal, state and local government web resources and services.